Probability
0 0 0 0 0 0 0 0 0 0 0 0 0 0 0 0 0 0 0 0 0 0 0 0 0 0 0 0 0 0 0 0 0 0 0 0 0 1 2 3 3 3 3 3
0 0 0 0 0 0 0 0 0 0 0 0 0 0 0 0 0 0 0 0 0 0 0 0 0 0 0 0 0 0 0 0 0 0 0 0 0 0 1 2 3 3 3 3
0 0 0 0 0 0 0 0 0 0 0 0 0 0 0 0 0 0 0 0 0 0 0 0 0 0 0 0 0 0 0 0 0 0 0 0 0 0 0 1 2 3 3 3
0 0 0 0 0 0 0 0 0 0 0 0 0 0 0 0 0 0 0 0 0 0 0 0 0 0 0 0 0 0 0 0 0 0 0 0 0 0 0 0 1 1 2 1
0 0 0 0 0 0 0 0 0 0 0 0 0 0 0 0 0 0 0 0 0 0 0 0 0 0 0 0 0 0 0 0 0 0 0 0 0 0 0 0 0 0 0 0
0 0 0 0 0 0 0 0 0 0 0 0 0 0 0 0 0 0 0 0 0 0 0 0 0 0 0 0 0 0 0 0 0 0 0 0 0 0 0 0 0 0 0 0
0 0 0 0 0 0 0 0 0 0 0 0 0 0 0 0 0 0 0 0 0 0 0 0 0 0 0 0 0 0 0 0 0 0 0 0 0 0 0 0 0 0 0 0
0 0 0 0 0 0 0 0 0 0 0 0 0 0 0 0 0 0 0 0 0 0 0 0 0 0 0 0 0 0 0 0 0 0 0 0 0 0 0 0 0 0 0 0
0 0 0 0 0 0 0 0 0 0 0 0 0 0 0 0 0 0 0 0 0 0 0 0 0 0 0 0 0 0 0 0 0 0 0 0 0 0 0 0 0 0 0 0
0 0 0 0 0 0 0 0 0 0 0 0 0 0 0 0 0 0 0 0 0 0 0 0 0 0 0 0 0 0 0 0 0 0 0 0 0 0 0 0 0 0 0 0
0 0 0 0 0 0 0 0 0 0 0 0 0 0 0 0 0 0 0 0 0 0 0 0 0 0 0 0 0 0 0 0 0 0 0 0 0 0 0 0 0 0 0 0
0 0 0 0 0 0 0 0 0 0 0 0 0 0 0 0 0 0 0 0 0 0 0 0 0 0 0 0 0 0 0 0 0 0 0 0 0 0 0 0 0 0 0 0
0 0 0 0 0 0 0 0 0 0 0 0 0 0 0 0 0 0 0 0 0 0 0 0 0 0 0 0 0 0 0 0 0 0 0 0 0 0 0 0 0 0 0 0
0 0 0 0 0 0 0 0 0 0 0 0 0 0 0 0 0 0 0 0 0 0 0 0 0 0 0 0 0 0 0 0 0 0 0 0 0 0 0 0 0 0 0 0
0 0 0 0 0 0 0 0 0 0 0 0 0 0 0 0 0 0 0 0 0 0 0 0 0 0 0 0 0 0 0 0 0 0 0 0 0 0 0 0 0 0 0 0
0 0 0 0 0 0 0 0 0 0 0 0 0 0 0 0 0 0 0 0 0 0 0 0 0 0 0 0 0 0 0 0 0 0 0 0 0 0 0 0 0 0 0 0
0 0 0 0 0 0 0 0 0 0 0 0 0 0 0 0 0 0 0 0 0 0 0 0 0 0 0 0 0 0 0 0 0 0 0 0 0 0 0 0 0 0 0 0
0 0 0 0 0 0 0 0 0 0 0 0 0 0 0 0 0 0 0 0 0 0 0 0 0 0 0 0 0 0 0 0 0 0 0 0 0 0 0 0 0 0 0 0
0 0 0 0 0 0 0 0 0 0 0 0 0 0 0 0 0 0 0 0 0 0 0 0 0 0 0 0 0 0 0 0 0 0 0 0 0 0 0 0 0 0 0 0
0 0 0 0 0 0 0 0 0 0 0 0 0 0 0 0 0 0 0 0 0 0 0 0 0 0 0 0 0 0 0 0 0 0 0 0 0 0 0 0 0 0 0 0
0 0 0 0 0 0 0 0 0 0 0 0 0 0 0 0 0 0 0 0 0 0 0 0 0 0 0 0 0 0 0 0 0 0 0 0 0 0 0 0 0 0 0 0
0 0 0 0 0 0 0 0 0 0 0 0 0 0 0 0 0 0 0 0 0 0 0 0 0 0 0 0 0 0 0 0 0 0 0 0 0 0 0 0 0 0 0 0
0 0 0 0 0 0 0 0 0 0 0 0 0 0 0 0 0 0 0 0 0 0 0 0 0 0 0 0 0 0 0 0 0 0 0 0 0 0 0 0 0 0 0 0
0 0 0 0 0 0 0 0 0 0 0 0 0 0 0 0 0 0 0 0 0 0 0 0 0 0 0 0 0 0 0 0 0 0 0 0 0 0 0 0 0 0 0 0
0 0 0 0 0 0 0 0 0 0 0 0 0 0 0 0 0 0 0 0 0 0 0 0 0 0 0 0 0 0 0 0 0 0 0 0 0 0 0 0 0 0 0 0
0 0 0 0 0 0 0 0 0 0 0 0 0 0 0 0 0 0 0 0 0 0 0 0 0 0 0 0 0 0 0 0 0 0 0 0 0 0 0 0 0 0 0 0
0 0 0 0 0 0 0 0 0 0 0 0 0 0 0 0 0 0 0 0 0 0 0 0 0 0 0 0 0 0 0 0 0 0 0 0 0 0 0 0 0 0 0 0
Wind_Speed
11 9 7 11 13 14 16 16 15 16 17 16 11 9 9 7 6 5 5 5 5 4 3 3 3 2 2 1 1 1 1 1 1 1 1 1 1 1 2 2 2 3 3 3
8 9 9 13 17 18 19 18 19 19 20 13 10 9 9 8 7 7 7 6 5 4 4 4 4 3 2 2 2 1 1 2 2 1 1 1 2 1 1 2 2 3 3 3
9 5 5 16 17 17 15 15 14 18 18 10 10 10 9 8 8 8 8 6 6 5 5 5 4 3 3 2 1 1 2 2 2 2 2 2 2 2 2 2 3 3 3 3
5 4 15 11 3 12 15 16 16 15 13 11 10 9 7 7 7 8 7 6 6 5 5 4 3 3 2 1 1 2 2 2 2 2 2 2 2 3 3 3 3 3 4 4
6 10 14 10 5 7 10 14 12 14 13 10 6 6 7 6 6 6 6 5 5 4 4 3 2 2 2 2 2 2 3 3 3 3 3 3 3 3 3 3 3 4 4 4
8 10 13 8 3 4 5 12 7 10 11 8 4 7 6 3 3 4 4 3 3 2 1 2 2 2 2 2 3 3 4 3 3 3 3 4 3 3 3 3 3 3 4 4
12 12 12 4 3 6 8 8 2 8 9 8 8 8 4 3 3 3 2 2 2 1 1 1 1 2 2 2 3 3 3 3 3 3 3 3 3 3 3 3 3 4 4 4
9 11 13 5 8 10 7 1 2 5 6 7 7 6 4 3 3 2 2 2 2 1 1 1 1 2 2 2 3 2 2 2 3 3 3 3 3 3 3 3 3 4 4 4
11 11 4 8 9 6 2 4 4 5 5 6 6 6 5 4 3 3 2 2 2 2 1 1 1 2 2 3 2 2 2 3 3 3 3 3 3 3 3 3 3 3 3 4
9 11 7 7 6 5 5 6 5 4 4 5 5 5 4 4 3 3 2 2 2 2 2 2 1 2 3 2 2 2 3 3 3 3 3 3 3 3 3 3 4 4 4 4
10 8 5 8 9 8 6 5 4 4 4 5 5 5 4 4 3 3 2 2 2 2 2 3 2 2 2 2 2 3 3 3 3 3 3 3 4 4 5 5 5 5 5 4
11 9 8 7 6 7 7 7 6 5 4 3 5 5 4 4 3 2 2 2 2 2 2 2 2 3 3 2 2 3 3 3 3 3 3 3 4 4 6 7 8 9 8 7
9 6 7 5 4 5 7 6 4 4 5 4 3 3 3 3 2 1 1 1 2 2 2 2 2 3 3 2 2 3 4 4 3 3 3 4 4 4 4 5 6 8 8 9
5 3 5 5 4 4 4 3 2 2 1 2 2 2 2 2 1 1 1 1 1 1 2 2 3 4 3 2 3 3 4 4 4 4 4 4 4 4 4 4 5 4 6 8
5 5 5 3 2 2 2 3 3 3 2 1 2 2 3 3 2 1 1 1 0 1 2 2 3 4 3 2 3 3 4 3 3 3 3 4 4 4 4 5 5 5 4 5
4 3 3 3 4 4 4 4 4 4 3 3 3 2 2 2 1 0 0 0 1 2 2 3 4 4 3 3 3 3 3 4 4 3 3 3 3 4 4 4 4 4 5 4
4 5 5 5 6 5 5 5 5 4 4 3 3 2 3 2 1 0 1 1 1 2 3 3 4 4 3 2 3 3 3 3 3 3 3 3 3 4 4 4 4 5 5 5
5 5 5 5 5 5 4 3 3 4 4 3 3 3 3 2 1 1 2 2 2 3 4 4 4 3 2 2 2 2 2 3 3 3 3 3 4 4 4 5 5 6 5 5
2 2 2 3 3 4 4 4 3 3 3 4 4 3 2 1 1 1 1 1 2 3 4 4 5 3 3 3 3 2 2 3 3 3 3 4 4 4 4 5 5 5 5 4
1 1 2 3 3 3 4 3 4 3 3 4 4 3 2 1 1 1 0 1 3 3 4 5 4 4 3 3 3 2 3 3 3 3 3 3 4 4 4 5 5 5 5 5
1 2 3 4 4 3 3 4 4 4 3 3 3 3 1 0 0 1 1 2 3 3 3 4 3 3 3 3 3 2 2 3 3 3 3 4 4 4 5 5 5 5 5 5
1 2 3 4 4 3 2 3 3 4 3 3 3 2 2 0 0 1 1 2 3 4 4 3 3 4 4 4 3 3 3 3 3 3 3 4 4 5 5 5 5 5 5 5
1 2 3 3 4 4 3 3 3 3 3 2 2 1 1 1 1 1 2 2 2 4 4 3 4 5 5 3 2 3 3 4 4 4 4 4 4 5 5 6 5 5 5 6
2 3 3 3 4 4 3 2 2 2 2 1 0 1 1 1 1 1 2 3 4 5 4 4 5 5 4 3 3 3 3 4 4 4 4 4 4 5 5 5 5 5 6 7
3 3 3 4 3 3 2 2 2 2 2 1 1 1 1 1 2 2 2 3 4 4 4 4 5 5 4 3 3 3 3 4 4 4 4 4 5 5 5 5 5 6 6 6
2 2 2 2 2 2 2 1 1 1 1 1 1 2 1 1 1 2 2 3 4 4 3 3 4 4 3 3 4 4 4 4 4 4 4 5 5 6 5 6 7 6 6 6
3 2 2 2 2 1 1 1 1 0 0 0 1 2 2 2 2 2 3 3 3 3 3 3 3 3 3 3 4 4 4 4 4 4 4 5 5 5 5 7 6 6 6 6
Wind_Direction
258 266 250 247 242 228 227 235 245 257 258 263 262 266 273 273 267 265 264 263 262 259 260 260 256 256 259 268 282 273 255 266 260 276 270 263 262 261 257 249 243 239 240 244
258 253 252 258 249 238 238 242 248 261 265 264 269 267 266 262 256 255 258 259 256 255 253 252 247 245 244 252 265 261 256 268 269 274 278 268 266 265 266 264 255 244 241 242
252 259 263 254 237 228 232 233 233 246 257 262 259 255 256 256 250 250 254 252 250 248 247 247 243 238 236 242 248 253 260 269 265 262 269 273 273 268 262 265 262 252 246 245
240 220 243 250 231 219 231 242 235 248 260 259 260 269 266 256 250 255 253 250 250 251 253 252 249 242 237 238 239 250 263 270 275 263 260 272 270 265 267 268 263 260 256 250
215 240 261 267 222 202 220 252 239 241 255 265 283 285 266 260 254 253 253 251 250 250 252 248 240 225 213 227 242 256 265 269 273 270 262 261 263 266 270 271 272 271 265 257
218 234 247 257 178 187 206 256 229 225 242 250 248 265 268 274 264 256 254 248 246 243 233 233 247 224 210 222 240 258 268 275 277 271 264 258 264 272 279 274 272 278 276 268
226 240 254 254 157 158 209 256 207 212 224 221 230 253 278 267 263 250 248 242 228 216 229 256 251 207 217 235 256 277 289 288 285 279 275 268 270 276 273 272 274 273 272 271
214 231 245 160 161 198 235 295 210 220 221 224 238 252 253 255 251 236 229 213 195 193 229 274 247 208 226 254 280 292 285 283 284 282 280 276 266 271 269 259 260 263 270 275
209 229 248 171 202 223 237 234 238 232 225 218 229 243 247 245 239 234 229 221 209 199 221 270 261 228 240 272 290 286 280 276 277 280 275 271 261 261 264 254 251 259 259 266
238 247 241 225 238 242 239 244 251 241 228 218 228 233 236 233 228 227 231 226 215 202 226 266 277 265 266 280 277 266 264 270 272 271 274 273 265 252 248 246 246 250 255 261
242 255 263 242 235 240 244 245 245 244 234 221 214 224 222 224 228 229 233 229 216 216 234 264 287 289 294 283 263 258 263 266 267 264 267 271 266 255 250 247 245 251 254 257
235 228 227 243 229 225 226 230 226 221 228 228 218 218 213 219 222 221 219 213 214 229 247 272 291 293 296 283 255 253 259 265 263 264 266 267 273 278 267 266 271 267 267 266
243 242 239 252 235 219 221 224 217 212 215 222 224 208 199 205 200 188 203 212 227 243 260 276 285 286 291 286 262 254 260 267 267 262 262 265 268 271 281 286 274 271 269 270
234 222 238 234 230 214 207 200 176 174 206 205 187 163 157 159 160 177 215 247 260 262 267 272 277 282 291 285 271 264 264 264 261 258 259 261 262 264 264 271 281 280 275 273
233 231 231 214 183 173 161 149 151 171 163 145 139 146 150 159 179 218 284 332 331 272 271 276 280 287 297 281 267 262 262 261 261 262 258 259 261 262 260 259 263 274 290 289
240 224 211 205 200 183 168 172 181 186 174 161 152 150 147 147 150 170 299 145 205 274 284 282 280 288 297 279 271 265 262 267 268 263 258 257 257 259 259 259 263 266 270 281
186 204 208 212 208 201 196 194 186 179 169 166 163 143 129 123 115 87 331 334 293 283 292 286 283 291 290 276 270 272 274 274 266 259 254 254 256 258 261 259 260 264 267 273
230 228 215 208 201 193 188 176 168 166 170 162 144 136 139 147 171 276 318 340 345 330 315 305 291 291 293 289 274 273 272 270 264 261 262 262 264 265 264 262 263 267 274 278
228 215 190 181 176 167 164 165 160 157 154 147 145 150 155 162 185 256 307 330 319 314 318 318 320 330 310 296 285 271 272 275 274 271 271 271 268 266 266 266 268 270 273 274
131 128 130 121 112 128 139 139 136 136 142 138 135 134 131 153 171 202 269 294 288 288 303 313 316 311 305 297 302 286 279 279 280 281 280 279 276 274 271 271 271 273 273 272
143 136 128 122 110 105 122 133 135 136 132 132 139 150 164 236 239 208 234 302 310 312 307 307 307 306 303 302 291 279 277 280 280 279 280 279 281 282 280 277 274 272 273 273
135 128 128 126 121 107 100 115 126 128 124 119 125 140 148 208 302 314 260 255 288 311 311 307 304 302 303 299 285 278 278 279 280 279 277 277 278 279 281 282 280 280 278 277
127 128 127 125 126 117 94 92 110 122 125 129 140 159 184 245 276 267 292 295 299 307 306 300 302 306 306 299 293 287 285 283 281 280 277 276 276 277 280 282 281 281 281 281
116 112 112 113 113 111 105 97 99 102 106 102 128 199 211 247 298 276 262 289 303 305 303 301 306 316 320 307 296 289 285 283 282 282 281 278 276 276 278 280 281 282 281 282
119 113 114 121 120 122 127 119 99 94 89 67 14 347 292 258 250 284 298 297 303 306 304 312 317 320 313 298 291 286 283 281 282 283 281 280 279 278 278 278 278 280 281 280
115 117 113 108 117 130 134 129 117 99 90 53 352 344 340 319 281 282 293 302 306 305 304 307 311 309 301 296 293 290 288 287 285 280 278 279 279 279 278 279 281 279 280 280
98 102 104 97 85 98 113 122 129 129 343 299 307 320 329 328 320 316 313 309 312 311 308 306 304 301 298 296 294 293 290 288 286 284 283 280 279 279 280 282 282 282 282 281